Left ArrowRight Arrow

Hourly Observations for January 16, 2022

Temp ( °F °C ) Dew Point ( °F °C ) Humidity (%) Winds ( mph kmh ) Pressure ( in mb ) Visibility ( mi km ) Precip ( " mm )
12:51 am 00:51 Clear 9 -12.8 -6 -21.1 50 50 N 9 15 30.40 1029 10 16 0.00 0.00
1:51 am 01:51 Clear 9 -12.8 -6 -21.1 50 50 N 13 20 30.42 1030 10 16 0.00 0.00
2:51 am 02:51 Clear 8 -13.3 -5 -20.6 55 55 NNE 8 13 30.42 1030 10 16 0.00 0.00
3:51 am 03:51 Clear 8 -13.3 -4 -20 57 57 N 6 9 30.42 1030 10 16 0.00 0.00
4:51 am 04:51 Clear 7 -13.9 -4 -20 60 60 N 7 11 30.42 1030 10 16 0.00 0.00
5:51 am 05:51 Clear 7 -13.9 -4 -20 60 60 N 6 9 30.42 1030 10 16 0.00 0.00
6:51 am 06:51 Clear 7 -13.9 -4 -20 60 60 N 8 13 30.42 1030 10 16 0.00 0.00
7:51 am 07:51 Sunny 8 -13.3 -3 -19.4 60 60 Calm 30.44 1031 10 16 0.00 0.00
8:51 am 08:51 Sunny 11 -11.7 -1 -18.3 58 58 N 5 7 30.44 1031 10 16 0.00 0.00
9:51 am 09:51 Sunny 13 -10.6 0 -17.8 56 56 N 6 9 30.43 1031 10 16 0.00 0.00
10:51 am 10:51 Sunny 17 -8.3 3 -16.1 54 54 N 8 13 30.38 1029 10 16 0.00 0.00
11:51 am 11:51 Sunny 19 -7.2 5 -15 54 54 N 6 9 30.35 1028 10 16 0.00 0.00
12:17 pm 12:17 Mostly Cloudy 20 -6.7 6 -14.4 55 55 N 8 13 30.32 1027 10 16 0.00 0.00
12:51 pm 12:51 Cloudy 22 -5.6 8 -13.3 55 55 VRB 5 7 30.30 1026 10 16 0.00 0.00
1:51 pm 13:51 Mostly Cloudy 24 -4.4 9 -12.8 52 52 N 6 9 30.27 1025 10 16 0.00 0.00
2:51 pm 14:51 Mostly Cloudy 25 -3.9 15 -9.4 66 66 VRB 6 9 30.23 1024 10 16 0.00 0.00
3:51 pm 15:51 Cloudy 25 -3.9 17 -8.3 72 72 ENE 10 17 30.17 1022 10 16 0.00 0.00
4:51 pm 16:51 Mostly Cloudy 26 -3.3 19 -7.2 75 75 VRB 3 6 30.16 1021 10 16 0.00 0.00
5:51 pm 17:51 Cloudy 28 -2.2 22 -5.6 78 78 NE 5 7 30.12 1020 10 16 0.00 0.00
6:51 pm 18:51 Cloudy with Light Snow 29 -1.7 23 -5 78 78 NNE 5 7 30.08 1019 5 8 0.00 0.00
7:06 pm 19:06 Cloudy with Light Snow 29 -1.7 23 -5 78 78 N 5 7 30.07 1018 3 4 0.00 0.00
7:51 pm 19:51 Cloudy with Light Snow 29 -1.7 25 -3.9 85 85 NNE 6 9 30.01 1016 2 3 0.02 0.51
8:22 pm 20:22 Cloudy with Light Snow 32 0 28 -2 87 87 NE 7 11 29.98 1015 2 3 0.00 0.00
8:51 pm 20:51 Cloudy with Light Snow 33 0.6 29 -1.7 85 85 NE 7 11 29.95 1014 2 3 0.04 1.02
9:51 pm 21:51 Cloudy with Light Snow 33 0.6 30 -1.1 89 89 NE 9 15 29.88 1012 2 3 0.07 1.78
10:51 pm 22:51 Cloudy with Light Wintry Mix 34 1.1 31 -0.6 89 89 ENE 10 17 29.78 1008 2 3 0.12 3.05
10:58 pm 22:58 Cloudy with Light Wintry Mix 35 1.7 32 0 89 89 ENE 14 22 29.76 1008 5 8 0.03 0.76
11:51 pm 23:51 Cloudy with Rain 37 2.8 34 1.1 89 89 ENE 15 24 29.66 1005 3 5 0.18 4.57

Powered by Vaisala Xweather